TimeCET,TemperatureF,Dew PointF,Humidity,Sea Level PressureIn,VisibilityMPH,Wind Direction,Wind SpeedMPH,Gust SpeedMPH,PrecipitationIn,Events,Conditions,WindDirDegrees,DateUTC
12:00 AM,44.6,41.0,87,29.59,-9999.0,Variable,1.2,-,N/A,,Clear,0,2012-10-30 23:00:00
12:30 AM,42.8,41.0,93,29.59,-9999.0,Calm,Calm,-,N/A,,Clear,0,2012-10-30 23:30:00
1:00 AM,42.8,42.8,100,29.59,-9999.0,Calm,Calm,-,N/A,,Clear,0,2012-10-31 00:00:00
1:30 AM,42.8,42.8,100,29.59,-9999.0,Variable,1.2,-,N/A,,Clear,0,2012-10-31 00:30:00
2:00 AM,42.8,41.0,93,29.59,-9999.0,Variable,1.2,-,N/A,,Clear,0,2012-10-31 01:00:00
2:30 AM,42.8,42.8,100,29.59,-9999.0,Variable,1.2,-,N/A,,Clear,0,2012-10-31 01:30:00
3:00 AM,41.0,41.0,100,29.59,-9999.0,Calm,Calm,-,N/A,,Clear,0,2012-10-31 02:00:00
3:30 AM,41.0,41.0,100,29.59,4.3,East,3.5,-,N/A,Fog,Unknown,90,2012-10-31 02:30:00
4:00 AM,39.2,39.2,100,29.56,0.6,East,6.9,-,N/A,Fog,Fog,90,2012-10-31 03:00:00
4:30 AM,39.2,39.2,100,29.53,3.7,Variable,1.2,-,N/A,Fog,Patches of Fog,0,2012-10-31 03:30:00
5:00 AM,37.4,37.4,100,29.53,3.7,Calm,Calm,-,N/A,Fog,Patches of Fog,0,2012-10-31 04:00:00
5:30 AM,39.2,39.2,100,29.53,3.1,Variable,2.3,-,N/A,Fog,Patches of Fog,0,2012-10-31 04:30:00
5:47 AM,37.4,37.4,100,29.53,1.2,Variable,2.3,-,N/A,Fog,Patches of Fog,0,2012-10-31 04:47:00
6:00 AM,37.4,37.4,100,29.53,1.6,SE,3.5,-,N/A,Fog,Patches of Fog,130,2012-10-31 05:00:00
6:30 AM,33.8,33.8,100,29.56,1.6,Calm,Calm,-,N/A,Fog,Patches of Fog,0,2012-10-31 05:30:00
7:00 AM,35.6,35.6,100,29.56,5.0,Calm,Calm,-,N/A,Fog,Patches of Fog,0,2012-10-31 06:00:00
7:30 AM,39.2,39.2,100,29.56,5.6,Variable,2.3,-,N/A,Fog,Patches of Fog,0,2012-10-31 06:30:00
8:00 AM,37.4,37.4,100,29.56,5.6,Variable,1.2,-,N/A,Fog,Patches of Fog,0,2012-10-31 07:00:00
8:17 AM,35.6,35.6,100,29.56,0.6,SE,4.6,-,N/A,Fog,Fog,130,2012-10-31 07:17:00
8:30 AM,35.6,35.6,100,29.56,0.4,SE,5.8,-,N/A,Fog,Fog,130,2012-10-31 07:30:00
9:00 AM,39.2,39.2,100,29.56,2.5,SE,4.6,-,N/A,Fog,Patches of Fog,140,2012-10-31 08:00:00
9:30 AM,41.0,41.0,100,29.56,5.0,Variable,1.2,-,N/A,Fog,Unknown,0,2012-10-31 08:30:00
10:00 AM,42.8,42.8,100,29.59,5.6,SE,3.5,-,N/A,,Unknown,130,2012-10-31 09:00:00
10:30 AM,44.6,44.6,100,29.56,-9999.0,SE,5.8,-,N/A,,Clear,130,2012-10-31 09:30:00
11:00 AM,46.4,46.4,100,29.59,-9999.0,Variable,2.3,-,N/A,,Clear,0,2012-10-31 10:00:00
11:30 AM,48.2,46.4,93,29.59,-9999.0,Calm,Calm,-,N/A,,Clear,0,2012-10-31 10:30:00
12:00 PM,51.8,50.0,94,29.59,6.2,SSW,4.6,-,N/A,,Scattered Clouds,200,2012-10-31 11:00:00
12:30 PM,53.6,48.2,82,29.56,6.2,SSW,5.8,-,N/A,,Partly Cloudy,200,2012-10-31 11:30:00
1:00 PM,55.4,48.2,77,29.56,6.2,SSW,4.6,-,N/A,,Scattered Clouds,200,2012-10-31 12:00:00
1:30 PM,55.4,46.4,72,29.56,6.2,WSW,8.1,-,N/A,,Partly Cloudy,240,2012-10-31 12:30:00
2:00 PM,53.6,46.4,77,29.53,6.2,SW,10.4,-,N/A,,Scattered Clouds,220,2012-10-31 13:00:00
2:30 PM,53.6,48.2,82,29.53,6.2,SSW,9.2,-,N/A,,Scattered Clouds,210,2012-10-31 13:30:00
3:00 PM,53.6,48.2,82,29.53,6.2,SW,10.4,-,N/A,,Scattered Clouds,220,2012-10-31 14:00:00
3:30 PM,53.6,48.2,82,29.50,6.2,SW,10.4,-,N/A,,Scattered Clouds,230,2012-10-31 14:30:00
4:00 PM,53.6,46.4,77,29.50,6.2,SW,9.2,-,N/A,,Scattered Clouds,220,2012-10-31 15:00:00
4:30 PM,53.6,48.2,82,29.50,6.2,SW,9.2,-,N/A,,Mostly Cloudy,220,2012-10-31 15:30:00
5:00 PM,53.6,48.2,82,29.50,6.2,SW,10.4,-,N/A,,Mostly Cloudy,220,2012-10-31 16:00:00
5:30 PM,51.8,48.2,88,29.50,6.2,SW,10.4,-,N/A,,Mostly Cloudy,220,2012-10-31 16:30:00
6:00 PM,53.6,48.2,82,29.50,6.2,SW,10.4,-,N/A,,Mostly Cloudy,220,2012-10-31 17:00:00
7:00 PM,51.8,48.2,88,29.50,6.2,SW,10.4,-,N/A,,Mostly Cloudy,220,2012-10-31 18:00:00
7:30 PM,51.8,48.2,88,29.50,6.2,SW,9.2,-,N/A,,Mostly Cloudy,220,2012-10-31 18:30:00
8:00 PM,51.8,50.0,94,29.50,4.3,SW,8.1,-,N/A,Rain,Light Rain,230,2012-10-31 19:00:00
8:30 PM,51.8,50.0,94,29.47,4.3,WSW,9.2,-,N/A,Rain,Light Rain,240,2012-10-31 19:30:00
9:00 PM,50.0,50.0,100,29.47,5.0,SW,9.2,-,N/A,Rain,Light Rain,230,2012-10-31 20:00:00
9:30 PM,50.0,50.0,100,29.47,3.1,SW,9.2,-,N/A,Rain,Light Rain,230,2012-10-31 20:30:00
10:00 PM,50.0,50.0,100,29.47,3.1,SW,10.4,-,N/A,Rain,Light Rain,220,2012-10-31 21:00:00
10:30 PM,50.0,50.0,100,29.47,3.7,SW,10.4,-,N/A,Rain,Light Rain,220,2012-10-31 21:30:00
11:00 PM,51.8,51.8,100,29.47,3.1,SW,10.4,-,N/A,,Mostly Cloudy,220,2012-10-31 22:00:00
11:30 PM,51.8,51.8,100,29.47,3.1,SW,12.7,-,N/A,,Mostly Cloudy,220,2012-10-31 22:30:00